Time,TemperatureF,DewpointF,PressureIn,WindDirection,WindDirectionDegrees,WindSpeedMPH,WindSpeedGustMPH,Humidity,HourlyPrecipIn,Conditions,Clouds,dailyrainin,SoftwareType,DateUTC
2013-04-16 00:02:00,42.0,32.0,29.95,North,0,0.0,3.0,68,0.00,,,0.66,,2013-04-16 05:02:00,
2013-04-16 00:12:00,42.0,32.0,29.95,North,0,0.0,3.0,68,0.00,,,0.66,,2013-04-16 05:12:00,
2013-04-16 00:22:00,42.0,33.0,29.94,North,0,0.0,5.0,69,0.00,,,0.66,,2013-04-16 05:22:00,
2013-04-16 00:32:00,42.0,32.0,29.95,North,0,0.0,4.0,68,0.00,,,0.66,,2013-04-16 05:32:00,
2013-04-16 00:42:00,42.0,32.0,29.95,North,0,0.0,4.0,68,0.00,,,0.66,,2013-04-16 05:42:00,
2013-04-16 00:52:00,41.0,32.0,29.96,North,0,0.0,3.0,69,0.00,,,0.66,,2013-04-16 05:52:00,
2013-04-16 01:02:00,40.0,31.0,29.97,North,0,0.0,4.0,69,0.00,,,0.66,,2013-04-16 06:02:00,
2013-04-16 01:12:00,40.0,31.0,29.97,North,0,0.0,5.0,70,0.00,,,0.66,,2013-04-16 06:12:00,
2013-04-16 01:22:00,40.0,31.0,29.97,North,0,0.0,5.0,70,0.00,,,0.66,,2013-04-16 06:22:00,
2013-04-16 01:32:00,39.0,30.0,29.96,North,0,0.0,1.0,70,0.00,,,0.66,,2013-04-16 06:32:00,
2013-04-16 01:42:00,39.0,30.0,29.96,North,0,0.0,1.0,70,0.00,,,0.66,,2013-04-16 06:42:00,
2013-04-16 01:52:00,39.0,30.0,29.96,North,0,0.0,0.0,71,0.00,,,0.65,,2013-04-16 06:52:00,
2013-04-16 02:02:00,39.0,30.0,29.96,North,0,0.0,2.0,71,0.00,,,0.55,,2013-04-16 07:02:00,
2013-04-16 02:12:00,39.0,30.0,29.96,North,0,0.0,2.0,71,0.00,,,0.55,,2013-04-16 07:12:00,
2013-04-16 02:22:00,38.0,29.0,29.96,North,0,0.0,2.0,71,0.00,,,0.46,,2013-04-16 07:22:00,
2013-04-16 02:32:00,38.0,29.0,29.96,North,0,0.0,2.0,70,0.00,,,0.39,,2013-04-16 07:32:00,
2013-04-16 02:42:00,38.0,29.0,29.96,North,0,0.0,2.0,70,0.00,,,0.39,,2013-04-16 07:42:00,
2013-04-16 02:53:00,38.0,29.0,29.96,North,0,0.0,2.0,69,0.00,,,0.32,,2013-04-16 07:53:00,
2013-04-16 03:02:00,38.0,29.0,29.98,North,0,0.0,2.0,69,0.00,,,0.28,,2013-04-16 08:02:00,
2013-04-16 03:12:00,38.0,29.0,29.98,North,0,0.0,2.0,69,0.00,,,0.28,,2013-04-16 08:12:00,
2013-04-16 03:22:00,38.0,29.0,29.98,North,0,0.0,5.0,69,0.00,,,0.23,,2013-04-16 08:22:00,
2013-04-16 03:32:00,37.0,28.0,29.99,North,0,0.0,4.0,69,0.00,,,0.21,,2013-04-16 08:32:00,
2013-04-16 03:42:00,37.0,28.0,29.99,North,0,0.0,4.0,69,0.00,,,0.21,,2013-04-16 08:42:00,
2013-04-16 03:52:00,37.0,28.0,30.01,West,271,1.0,5.0,69,0.00,,,0.21,,2013-04-16 08:52:00,
2013-04-16 04:02:00,37.0,28.0,30.00,North,0,0.0,2.0,70,0.00,,,0.21,,2013-04-16 09:02:00,
2013-04-16 04:12:00,37.0,28.0,30.00,North,0,0.0,2.0,70,0.00,,,0.21,,2013-04-16 09:12:00,
2013-04-16 04:22:00,37.0,28.0,30.00,North,0,0.0,3.0,69,0.00,,,0.18,,2013-04-16 09:22:00,
2013-04-16 04:33:00,37.0,28.0,30.00,North,0,0.0,3.0,69,0.00,,,0.18,,2013-04-16 09:33:00,
2013-04-16 04:42:00,37.0,28.0,30.00,North,0,0.0,3.0,69,0.00,,,0.18,,2013-04-16 09:42:00,
2013-04-16 04:52:00,36.0,27.0,30.01,North,0,0.0,2.0,69,0.00,,,0.09,,2013-04-16 09:52:00,
2013-04-16 05:03:00,36.0,27.0,30.01,North,0,0.0,2.0,69,0.00,,,0.09,,2013-04-16 10:03:00,
2013-04-16 05:13:00,36.0,27.0,30.01,North,0,0.0,2.0,69,0.00,,,0.09,,2013-04-16 10:13:00,
2013-04-16 05:22:00,35.0,26.0,30.03,West,271,1.0,4.0,70,0.00,,,0.09,,2013-04-16 10:22:00,
2013-04-16 05:33:00,35.0,26.0,30.03,North,0,0.0,0.0,69,0.00,,,0.09,,2013-04-16 10:33:00,
2013-04-16 05:42:00,35.0,26.0,30.03,North,0,0.0,0.0,69,0.00,,,0.09,,2013-04-16 10:42:00,
2013-04-16 05:52:00,35.0,26.0,30.03,North,0,0.0,2.0,70,0.00,,,0.09,,2013-04-16 10:52:00,
2013-04-16 06:02:00,34.0,25.0,30.03,North,0,0.0,2.0,69,0.00,,,0.09,,2013-04-16 11:02:00,
2013-04-16 06:12:00,34.0,25.0,30.03,North,0,0.0,2.0,69,0.00,,,0.09,,2013-04-16 11:12:00,
2013-04-16 06:22:00,34.0,25.0,30.04,North,0,0.0,4.0,70,0.00,,,0.09,,2013-04-16 11:22:00,
2013-04-16 06:32:00,35.0,26.0,30.05,West,271,1.0,6.0,70,0.00,,,0.09,,2013-04-16 11:32:00,
2013-04-16 06:42:00,35.0,26.0,30.05,West,271,1.0,6.0,70,0.00,,,0.09,,2013-04-16 11:42:00,
2013-04-16 06:52:00,35.0,26.0,30.05,West,271,1.0,6.0,70,0.00,,,0.09,,2013-04-16 11:52:00,
2013-04-16 07:02:00,34.0,25.0,30.06,North,0,0.0,2.0,70,0.00,,,0.09,,2013-04-16 12:02:00,
2013-04-16 07:12:00,34.0,25.0,30.06,North,0,0.0,2.0,70,0.00,,,0.09,,2013-04-16 12:12:00,
2013-04-16 07:22:00,34.0,25.0,30.06,North,0,0.0,4.0,70,0.00,,,0.09,,2013-04-16 12:22:00,
2013-04-16 07:32:00,34.0,25.0,30.06,North,0,0.0,4.0,70,0.00,,,0.09,,2013-04-16 12:32:00,
2013-04-16 07:42:00,34.0,25.0,30.06,North,0,0.0,4.0,70,0.00,,,0.09,,2013-04-16 12:42:00,
2013-04-16 07:52:00,36.0,27.0,30.08,WSW,255,2.0,8.0,70,0.00,,,0.09,,2013-04-16 12:52:00,
2013-04-16 08:02:00,37.0,28.0,30.09,WNW,296,4.0,8.0,70,0.00,,,0.09,,2013-04-16 13:02:00,
2013-04-16 08:12:00,37.0,28.0,30.09,WNW,296,4.0,8.0,70,0.00,,,0.09,,2013-04-16 13:12:00,
2013-04-16 08:22:00,37.0,28.0,30.10,WNW,282,5.0,10.0,70,0.00,,,0.09,,2013-04-16 13:22:00,
2013-04-16 08:32:00,38.0,29.0,30.11,WNW,293,3.0,13.0,70,0.00,,,0.09,,2013-04-16 13:32:00,
2013-04-16 08:42:00,38.0,29.0,30.11,WNW,293,3.0,13.0,70,0.00,,,0.09,,2013-04-16 13:42:00,
2013-04-16 08:52:00,38.0,29.0,30.12,West,273,6.0,16.0,69,0.00,,,0.09,,2013-04-16 13:52:00,
2013-04-16 09:02:00,39.0,30.0,30.11,West,281,4.0,12.0,70,0.00,,,0.09,,2013-04-16 14:02:00,
2013-04-16 09:12:00,39.0,30.0,30.11,West,281,4.0,12.0,70,0.00,,,0.09,,2013-04-16 14:12:00,
2013-04-16 09:22:00,39.0,30.0,30.12,WNW,284,5.0,11.0,70,0.00,,,0.09,,2013-04-16 14:22:00,
2013-04-16 09:32:00,39.0,30.0,30.12,WNW,284,5.0,11.0,70,0.00,,,0.09,,2013-04-16 14:32:00,
2013-04-16 09:42:00,39.0,30.0,30.12,WNW,284,5.0,11.0,70,0.00,,,0.09,,2013-04-16 14:42:00,
2013-04-16 09:52:00,40.0,31.0,30.13,NW,305,4.0,10.0,70,0.00,,,0.09,,2013-04-16 14:52:00,
2013-04-16 10:02:00,41.0,32.0,30.13,West,268,3.0,10.0,69,0.00,,,0.09,,2013-04-16 15:02:00,
2013-04-16 10:12:00,41.0,32.0,30.13,West,268,3.0,10.0,69,0.00,,,0.09,,2013-04-16 15:12:00,
2013-04-16 10:22:00,41.0,32.0,30.14,NW,315,1.0,10.0,69,0.00,,,0.09,,2013-04-16 15:22:00,
2013-04-16 10:33:00,42.0,33.0,30.13,WNW,300,1.0,10.0,69,0.00,,,0.09,,2013-04-16 15:33:00,
2013-04-16 10:43:00,42.0,33.0,30.13,WNW,300,1.0,10.0,69,0.00,,,0.09,,2013-04-16 15:43:00,
2013-04-16 10:53:00,43.0,34.0,30.13,West,260,2.0,11.0,69,0.00,,,0.09,,2013-04-16 15:53:00,
2013-04-16 11:03:00,43.0,33.0,30.14,WNW,285,3.0,9.0,68,0.00,,,0.09,,2013-04-16 16:03:00,
2013-04-16 11:13:00,43.0,33.0,30.14,WNW,285,3.0,9.0,68,0.00,,,0.09,,2013-04-16 16:13:00,
2013-04-16 11:23:00,44.0,34.0,30.15,West,271,6.0,9.0,69,0.00,,,0.09,,2013-04-16 16:23:00,
2013-04-16 11:32:00,45.0,35.0,30.15,WNW,289,2.0,9.0,69,0.00,,,0.09,,2013-04-16 16:32:00,
2013-04-16 11:42:00,45.0,35.0,30.15,WNW,289,2.0,9.0,69,0.00,,,0.09,,2013-04-16 16:42:00,
2013-04-16 11:52:00,45.0,35.0,30.15,North,0,0.0,6.0,68,0.00,,,0.09,,2013-04-16 16:52:00,
2013-04-16 12:02:00,46.0,36.0,30.17,West,274,6.0,12.0,68,0.00,,,0.09,,2013-04-16 17:02:00,
2013-04-16 12:12:00,46.0,36.0,30.17,West,274,6.0,12.0,68,0.00,,,0.09,,2013-04-16 17:12:00,
2013-04-16 12:22:00,46.0,36.0,30.17,West,264,3.0,11.0,68,0.00,,,0.09,,2013-04-16 17:22:00,
2013-04-16 12:32:00,48.0,37.0,30.18,WNW,302,1.0,6.0,66,0.00,,,0.09,,2013-04-16 17:32:00,
2013-04-16 12:43:00,48.0,37.0,30.18,WNW,302,1.0,6.0,66,0.00,,,0.09,,2013-04-16 17:43:00,
2013-04-16 12:52:00,48.0,38.0,30.18,West,275,4.0,11.0,67,0.00,,,0.09,,2013-04-16 17:52:00,
2013-04-16 13:02:00,49.0,38.0,30.17,West,262,2.0,10.0,66,0.00,,,0.09,,2013-04-16 18:02:00,
2013-04-16 13:12:00,48.0,37.0,30.18,WSW,258,5.0,13.0,65,0.00,,,0.09,,2013-04-16 18:12:00,
2013-04-16 13:22:00,48.0,37.0,30.18,WSW,258,5.0,13.0,65,0.00,,,0.09,,2013-04-16 18:22:00,
2013-04-16 13:32:00,49.0,38.0,30.18,NW,305,3.0,11.0,65,0.00,,,0.09,,2013-04-16 18:32:00,
2013-04-16 13:42:00,49.0,38.0,30.18,NW,305,3.0,11.0,65,0.00,,,0.09,,2013-04-16 18:42:00,
2013-04-16 13:52:00,49.0,36.0,30.17,NW,311,6.0,13.0,61,0.00,,,0.09,,2013-04-16 18:52:00,
2013-04-16 14:02:00,50.0,37.0,30.17,WNW,291,7.0,15.0,60,0.00,,,0.09,,2013-04-16 19:02:00,
2013-04-16 14:12:00,50.0,37.0,30.17,WNW,291,7.0,15.0,60,0.00,,,0.09,,2013-04-16 19:12:00,
2013-04-16 14:22:00,50.0,37.0,30.17,NW,323,2.0,12.0,61,0.00,,,0.09,,2013-04-16 19:22:00,
2013-04-16 14:32:00,51.0,37.0,30.16,WNW,302,4.0,11.0,59,0.00,,,0.09,,2013-04-16 19:32:00,
2013-04-16 14:42:00,51.0,37.0,30.16,WNW,302,4.0,11.0,59,0.00,,,0.09,,2013-04-16 19:42:00,
2013-04-16 14:52:00,51.0,38.0,30.16,WNW,293,5.0,11.0,62,0.00,,,0.09,,2013-04-16 19:52:00,
2013-04-16 15:02:00,51.0,37.0,30.16,WNW,301,5.0,16.0,58,0.00,,,0.09,,2013-04-16 20:02:00,
2013-04-16 15:12:00,51.0,37.0,30.16,WNW,301,5.0,16.0,58,0.00,,,0.09,,2013-04-16 20:12:00,
2013-04-16 15:22:00,51.0,38.0,30.16,NW,318,3.0,13.0,60,0.00,,,0.09,,2013-04-16 20:22:00,
2013-04-16 15:32:00,52.0,39.0,30.17,North,0,0.0,10.0,61,0.00,,,0.09,,2013-04-16 20:32:00,
2013-04-16 15:42:00,52.0,39.0,30.17,North,0,0.0,10.0,61,0.00,,,0.09,,2013-04-16 20:42:00,
2013-04-16 15:52:00,53.0,39.0,30.17,NW,319,1.0,7.0,58,0.00,,,0.09,,2013-04-16 20:52:00,
2013-04-16 16:02:00,53.0,39.0,30.17,NW,319,1.0,7.0,58,0.00,,,0.09,,2013-04-16 21:02:00,
2013-04-16 16:12:00,53.0,39.0,30.17,NW,319,1.0,7.0,58,0.00,,,0.09,,2013-04-16 21:12:00,
2013-04-16 16:22:00,53.0,38.0,30.19,North,0,0.0,9.0,57,0.00,,,0.09,,2013-04-16 21:22:00,
2013-04-16 16:32:00,53.0,38.0,30.19,West,259,1.0,7.0,57,0.00,,,0.09,,2013-04-16 21:32:00,
2013-04-16 16:43:00,53.0,38.0,30.19,West,259,1.0,7.0,57,0.00,,,0.09,,2013-04-16 21:43:00,
2013-04-16 16:52:00,53.0,38.0,30.19,NW,313,1.0,8.0,56,0.00,,,0.09,,2013-04-16 21:52:00,
2013-04-16 17:02:00,53.0,38.0,30.19,NW,313,1.0,8.0,56,0.00,,,0.09,,2013-04-16 22:02:00,
2013-04-16 17:13:00,53.0,38.0,30.19,NW,313,1.0,8.0,56,0.00,,,0.09,,2013-04-16 22:13:00,
2013-04-16 17:22:00,52.0,38.0,30.19,North,0,0.0,4.0,59,0.00,,,0.09,,2013-04-16 22:22:00,
2013-04-16 17:33:00,52.0,38.0,30.19,NW,308,2.0,5.0,59,0.00,,,0.07,,2013-04-16 22:33:00,
2013-04-16 17:42:00,52.0,38.0,30.19,NW,308,2.0,5.0,59,0.00,,,0.07,,2013-04-16 22:42:00,
2013-04-16 17:52:00,52.0,37.0,30.20,NW,318,1.0,5.0,56,0.00,,,0.02,,2013-04-16 22:52:00,
2013-04-16 18:02:00,52.0,37.0,30.20,NW,318,1.0,6.0,56,0.00,,,0.00,,2013-04-16 23:02:00,
2013-04-16 18:12:00,52.0,37.0,30.20,NW,318,1.0,6.0,56,0.00,,,0.00,,2013-04-16 23:12:00,
2013-04-16 18:22:00,51.0,35.0,30.21,NW,321,1.0,7.0,55,0.00,,,0.00,,2013-04-16 23:22:00,
2013-04-16 18:32:00,51.0,36.0,30.21,North,0,0.0,5.0,57,0.00,,,0.00,,2013-04-16 23:32:00,
2013-04-16 18:42:00,51.0,36.0,30.21,North,0,0.0,5.0,57,0.00,,,0.00,,2013-04-16 23:42:00,
2013-04-16 18:52:00,52.0,37.0,30.21,North,0,0.0,2.0,56,0.00,,,0.00,,2013-04-16 23:52:00,
2013-04-16 19:02:00,52.0,37.0,30.21,North,0,0.0,2.0,56,0.00,,,0.00,,2013-04-17 00:02:00,
2013-04-16 19:12:00,52.0,37.0,30.21,North,0,0.0,2.0,56,0.00,,,0.00,,2013-04-17 00:12:00,
2013-04-16 19:22:00,50.0,38.0,30.21,North,0,0.0,4.0,62,0.00,,,0.00,,2013-04-17 00:22:00,
2013-04-16 19:32:00,49.0,37.0,30.22,North,0,0.0,3.0,64,0.00,,,0.00,,2013-04-17 00:32:00,
2013-04-16 19:42:00,49.0,37.0,30.22,North,0,0.0,3.0,64,0.00,,,0.00,,2013-04-17 00:42:00,
2013-04-16 19:52:00,48.0,36.0,30.22,North,0,0.0,5.0,63,0.00,,,0.00,,2013-04-17 00:52:00,
2013-04-16 20:02:00,47.0,36.0,30.23,North,0,0.0,1.0,65,0.00,,,0.00,,2013-04-17 01:02:00,
2013-04-16 20:12:00,47.0,36.0,30.23,North,0,0.0,1.0,65,0.00,,,0.00,,2013-04-17 01:12:00,
2013-04-16 20:22:00,47.0,36.0,30.23,North,0,0.0,1.0,66,0.00,,,0.00,,2013-04-17 01:22:00,
2013-04-16 20:32:00,46.0,36.0,30.24,North,0,0.0,1.0,68,0.00,,,0.00,,2013-04-17 01:32:00,
2013-04-16 20:42:00,46.0,36.0,30.24,North,0,0.0,1.0,68,0.00,,,0.00,,2013-04-17 01:42:00,
2013-04-16 20:52:00,46.0,36.0,30.24,NW,323,1.0,4.0,69,0.00,,,0.00,,2013-04-17 01:52:00,
2013-04-16 21:02:00,45.0,36.0,30.25,North,0,0.0,3.0,70,0.00,,,0.00,,2013-04-17 02:02:00,
2013-04-16 21:12:00,45.0,36.0,30.25,North,0,0.0,3.0,70,0.00,,,0.00,,2013-04-17 02:12:00,
2013-04-16 21:22:00,44.0,35.0,30.26,North,0,0.0,2.0,71,0.00,,,0.00,,2013-04-17 02:22:00,
2013-04-16 21:32:00,44.0,35.0,30.26,North,0,0.0,1.0,71,0.00,,,0.00,,2013-04-17 02:32:00,
2013-04-16 21:42:00,44.0,35.0,30.26,North,0,0.0,1.0,71,0.00,,,0.00,,2013-04-17 02:42:00,
2013-04-16 21:52:00,43.0,34.0,30.27,North,0,0.0,1.0,71,0.00,,,0.00,,2013-04-17 02:52:00,
2013-04-16 22:02:00,42.0,33.0,30.26,North,0,0.0,0.0,71,0.00,,,0.00,,2013-04-17 03:02:00,
2013-04-16 22:12:00,42.0,33.0,30.26,North,0,0.0,0.0,71,0.00,,,0.00,,2013-04-17 03:12:00,
2013-04-16 22:22:00,42.0,34.0,30.27,North,0,0.0,1.0,72,0.00,,,0.00,,2013-04-17 03:22:00,
2013-04-16 22:33:00,42.0,34.0,30.27,North,0,0.0,0.0,72,0.00,,,0.00,,2013-04-17 03:33:00,
2013-04-16 22:42:00,42.0,34.0,30.27,North,0,0.0,0.0,72,0.00,,,0.00,,2013-04-17 03:42:00,
2013-04-16 22:53:00,41.0,33.0,30.27,North,0,0.0,0.0,72,0.00,,,0.00,,2013-04-17 03:53:00,
2013-04-16 23:03:00,41.0,33.0,30.28,North,0,0.0,2.0,72,0.00,,,0.00,,2013-04-17 04:03:00,
2013-04-16 23:13:00,41.0,33.0,30.28,North,0,0.0,2.0,72,0.00,,,0.00,,2013-04-17 04:13:00,
2013-04-16 23:22:00,42.0,34.0,30.28,North,0,0.0,0.0,72,0.00,,,0.00,,2013-04-17 04:22:00,
2013-04-16 23:33:00,41.0,33.0,30.29,North,0,0.0,0.0,72,0.00,,,0.00,,2013-04-17 04:33:00,
2013-04-16 23:42:00,41.0,33.0,30.29,North,0,0.0,0.0,72,0.00,,,0.00,,2013-04-17 04:42:00,
2013-04-16 23:52:00,41.0,33.0,30.29,North,0,0.0,0.0,72,0.00,,,0.00,,2013-04-17 04:52:00,